TimeAKDT,TemperatureF,Dew PointF,Humidity,Sea Level PressureIn,VisibilityMPH,Wind Direction,Wind SpeedMPH,Gust SpeedMPH,PrecipitationIn,Events,Conditions,WindDirDegrees,DateUTC
12:55 AM,42.8,41.7,96,30.30,10.0,Calm,Calm,-,N/A,,Partly Cloudy,0,2012-10-07 08:55:00
1:55 AM,43.9,43.0,97,30.32,10.0,Calm,Calm,-,N/A,,Clear,0,2012-10-07 09:55:00
2:47 AM,42.8,42.8,100,30.31,10.0,Calm,Calm,-,N/A,,Mostly Cloudy,0,2012-10-07 10:47:00
2:55 AM,43.5,42.3,95,30.31,10.0,NE,3.5,-,0.00,,Light Drizzle,50,2012-10-07 10:55:00
3:55 AM,44.2,43.2,96,30.30,10.0,NE,5.8,-,0.01,Rain,Light Rain,50,2012-10-07 11:55:00
4:55 AM,44.8,42.8,93,30.30,10.0,North,4.6,-,0.02,Rain,Light Rain,10,2012-10-07 12:55:00
5:55 AM,44.1,42.6,95,30.29,10.0,North,5.8,-,0.02,Rain,Light Rain,360,2012-10-07 13:55:00
6:55 AM,43.2,42.6,98,30.27,10.0,North,6.9,-,0.01,Rain,Light Rain,360,2012-10-07 14:55:00
7:55 AM,43.7,42.1,94,30.26,10.0,North,3.5,-,0.00,,Light Drizzle,350,2012-10-07 15:55:00
8:04 AM,42.8,42.8,100,30.26,10.0,Calm,Calm,-,N/A,,Overcast,0,2012-10-07 16:04:00
8:20 AM,42.8,42.8,100,30.27,10.0,Calm,Calm,-,N/A,,Light Drizzle,0,2012-10-07 16:20:00
8:55 AM,43.2,42.8,99,30.27,10.0,NNW,4.6,-,0.00,Rain,Light Rain,330,2012-10-07 16:55:00
9:55 AM,44.1,43.0,96,30.27,10.0,North,6.9,-,0.01,Rain,Light Rain,360,2012-10-07 17:55:00
10:55 AM,44.6,43.7,97,30.28,10.0,Calm,Calm,-,0.00,Rain,Light Rain,0,2012-10-07 18:55:00
11:37 AM,44.6,44.6,100,30.29,8.0,Calm,Calm,-,N/A,Rain,Light Rain,0,2012-10-07 19:37:00
11:55 AM,45.1,44.4,97,30.29,8.0,NE,3.5,-,0.02,Rain,Light Rain,50,2012-10-07 19:55:00
12:28 PM,46.4,44.6,93,30.28,10.0,Calm,Calm,-,N/A,Rain,Light Rain,0,2012-10-07 20:28:00
12:55 PM,45.9,45.0,97,30.29,10.0,Calm,Calm,-,0.04,Rain,Light Rain,0,2012-10-07 20:55:00
1:10 PM,46.4,44.6,93,30.29,9.0,Calm,Calm,-,N/A,Rain,Light Rain,0,2012-10-07 21:10:00
1:16 PM,46.4,44.6,93,30.29,10.0,Calm,Calm,-,N/A,Rain,Light Rain,0,2012-10-07 21:16:00
1:27 PM,46.4,44.6,93,30.29,10.0,Calm,Calm,-,N/A,Rain,Light Rain,0,2012-10-07 21:27:00
1:43 PM,46.4,46.4,100,30.29,10.0,Calm,Calm,-,N/A,,Light Drizzle,0,2012-10-07 21:43:00
1:55 PM,45.9,45.5,99,30.29,10.0,Calm,Calm,-,0.02,,Light Drizzle,0,2012-10-07 21:55:00
2:48 PM,46.4,44.6,93,30.29,10.0,Calm,Calm,-,N/A,,Light Drizzle,0,2012-10-07 22:48:00
2:55 PM,46.0,45.5,98,30.29,10.0,Calm,Calm,-,0.00,,Light Drizzle,0,2012-10-07 22:55:00
3:26 PM,46.4,46.4,100,30.29,6.0,Calm,Calm,-,N/A,,Light Drizzle,0,2012-10-07 23:26:00
3:55 PM,46.6,45.9,97,30.28,10.0,Calm,Calm,-,0.00,Rain,Light Rain,0,2012-10-07 23:55:00
4:08 PM,46.4,46.4,100,30.28,10.0,Calm,Calm,-,N/A,Rain,Light Rain,0,2012-10-08 00:08:00
4:55 PM,46.6,46.0,98,30.26,10.0,Calm,Calm,-,0.01,Rain,Light Rain,0,2012-10-08 00:55:00
5:20 PM,46.4,46.4,100,30.26,10.0,Calm,Calm,-,N/A,,Overcast,0,2012-10-08 01:20:00
5:55 PM,46.4,45.9,98,30.27,10.0,Calm,Calm,-,0.00,,Overcast,0,2012-10-08 01:55:00
6:55 PM,46.4,45.5,97,30.27,10.0,NNE,4.6,-,N/A,,Overcast,30,2012-10-08 02:55:00
7:55 PM,46.0,45.3,97,30.26,10.0,Calm,Calm,-,N/A,,Overcast,0,2012-10-08 03:55:00
8:55 PM,46.0,45.5,98,30.26,10.0,Calm,Calm,-,N/A,,Overcast,0,2012-10-08 04:55:00
9:06 PM,46.4,44.6,93,30.26,10.0,NNW,6.9,-,N/A,,Overcast,330,2012-10-08 05:06:00
9:16 PM,46.4,44.6,93,30.26,2.5,NNW,6.9,-,N/A,,Overcast,340,2012-10-08 05:16:00
9:18 PM,46.4,44.6,93,30.26,1.8,NNW,8.1,-,N/A,,Overcast,340,2012-10-08 05:18:00
9:19 PM,46.4,44.6,93,30.26,1.5,NNW,9.2,-,N/A,,Overcast,340,2012-10-08 05:19:00
9:20 PM,46.4,44.6,93,30.26,1.2,North,8.1,-,N/A,,Overcast,360,2012-10-08 05:20:00
9:21 PM,46.4,44.6,93,30.26,1.2,North,9.2,-,N/A,,Overcast,360,2012-10-08 05:21:00
9:22 PM,46.4,44.6,93,30.26,1.0,North,10.4,-,N/A,,Overcast,350,2012-10-08 05:22:00
9:23 PM,46.4,44.6,93,30.26,1.0,NNW,8.1,-,N/A,,Overcast,340,2012-10-08 05:23:00
9:26 PM,46.4,44.6,93,30.26,0.8,NNW,9.2,-,N/A,,Overcast,340,2012-10-08 05:26:00
9:33 PM,46.4,44.6,93,30.26,0.5,NNW,9.2,-,N/A,Fog,Fog,340,2012-10-08 05:33:00
9:34 PM,46.4,44.6,93,30.26,0.5,NNW,9.2,-,N/A,Fog,Fog,340,2012-10-08 05:34:00
9:43 PM,46.4,44.6,93,30.26,0.5,Calm,Calm,-,N/A,Fog,Fog,0,2012-10-08 05:43:00
9:52 PM,46.4,44.6,93,30.26,0.5,Calm,Calm,-,N/A,Fog,Fog,0,2012-10-08 05:52:00
9:55 PM,45.5,45.3,99,30.26,0.5,NE,4.6,-,N/A,Fog,Fog,40,2012-10-08 05:55:00
9:58 PM,44.6,44.6,100,30.26,0.2,NE,3.5,-,N/A,Fog,Fog,40,2012-10-08 05:58:00
10:02 PM,44.6,44.6,100,30.25,0.2,Calm,Calm,-,N/A,Fog,Fog,0,2012-10-08 06:02:00
10:04 PM,44.6,44.6,100,30.25,0.2,ENE,4.6,-,N/A,Fog,Fog,60,2012-10-08 06:04:00
10:09 PM,44.6,44.6,100,30.25,0.5,Calm,Calm,-,N/A,Fog,Fog,0,2012-10-08 06:09:00
10:23 PM,44.6,44.6,100,30.25,0.5,Calm,Calm,-,N/A,Fog,Fog,0,2012-10-08 06:23:00
10:27 PM,44.6,44.6,100,30.25,0.5,WNW,3.5,-,N/A,Fog,Fog,290,2012-10-08 06:27:00
10:35 PM,44.6,44.6,100,30.26,0.8,NNW,5.8,-,N/A,,Mist,340,2012-10-08 06:35:00
10:41 PM,44.6,44.6,100,30.26,3.0,NNW,9.2,-,N/A,,Overcast,340,2012-10-08 06:41:00
10:55 PM,45.0,44.8,99,30.25,6.0,North,4.6,-,N/A,,Overcast,350,2012-10-08 06:55:00
11:19 PM,44.6,44.6,100,30.26,6.0,Calm,Calm,-,N/A,,Overcast,0,2012-10-08 07:19:00
11:46 PM,44.6,44.6,100,30.26,6.0,Calm,Calm,-,N/A,,Overcast,0,2012-10-08 07:46:00
11:55 PM,44.8,44.6,99,30.25,6.0,Calm,Calm,-,N/A,,Overcast,0,2012-10-08 07:55:00